Погода Дзерджинское

Погода Дзерджинское : погода сейчас, прогноз погоды и архив. Всё, что Вы хотите узнать о погоде Дзерджинское!

Хотите узнать прогноз погоды Дзерджинское? Тогда Вам сюда: Погода Дзерджинское

Поиск расширенной информации на нашем сайте:

Полезная информация: Такси из аэропорта читать дальше.
К косметологу первый раз хабаровск и еще.

Другие новости

Новости СМИ2

Главная страница сайта

Новости сайта

02.10.2013

Напоминаем, что на нашем новом сайте вы можете получить высокодетализированные прогнозы погоды по пунктам России, СНГ и мира (включающие важные для авиации метеовеличины, такие как направление и скорость ветра, видимость, явления погоды, количество и форма облачности, нижняя и верхняя граница облачности), а также ознакомиться с разнообразными материалами по авиационной метеорологии и подборкой полезных ссылок на эту тему.

Сайт Метеоцентр.Азия посвящён разработке технологий оптимизации авиаметеорологического обслуживания, включая проектирование и перспективное создание нескольких автоматизированных авиаметеорологических систем:
- система выпуска высокодетальных прогностических карт явлений погоды для нижнего воздушного пространства по России и ближнему зарубежью;
- система верификации прогнозов TAF (выпускаемых синоптиками официальных АМСГ РФ и ближнего зарубежья) и AUTOTAF (выпускаемых сайтом Метеоцентр.Азия) - выявление ошибок, онлайн-сопоставление с фактической погодой METAR, автоматическое внесение коррективов в прогнозы при резком отклонении фактической погоды от прогноза, подсчёт оправдываемости прогнозов по элементам и в целом;
- система обработки, анализа и отображения авиаметеорологической информации для применения провайдерами метеорологической информации.

Рекомендуем: Ремонт husqvarna проблема с хускварной husqvarna.

Погода Дзерджинское - сегодня

Время (UTC), дата Ветер
(°,м/с) 
Видим.   Явления Облачность Т
(°С)
Тd
(°С)
f(%) Тe
(°С)
Pmin
(гПа)
dP
(гПа)
Po
(мм)
O2
(г/м3)
Тmin Tmax R s Состояние
почвы
12 22.03.17 тихо ()   20000 м    3/0 верхняя 
[Ci fib]
+0.9 -6.4 58 +1  1031.3  0.5  756  304    +7.8       
15 22.03.17 130 (ЮВ) 20000 м    ясно 
-4.5 -7.7 78 -4  1032.9  1.1  756  311           
18 22.03.17 тихо ()   20000 м    ясно 
-9.7 -10.2 96 -10  1034  0.6  757  317           
21 22.03.17 тихо ()   20000 м    ясно 
-12.4 -12.6 98 -12  1034.5  0.3  757  321           
00 23.03.17 130 (ЮВ) 20000 м    3/0 верхняя 
[Ci fib]
-14.8 -15.2 97 -15  1035.7  0.9  758  324  -14.8      39  равномерный
сухой снег
100% 
03 23.03.17 тихо ()   20000 м    ясно 
-1.3 -9.9 52 -1  1035.1  0.7  758  308           
06 23.03.17 290 (З) 20000 м    3/0 верхняя 
[Ci fib]
+4.7 -12.1 28 +4  1033.8  -0.8  758  301           
09 23.03.17 300 (СЗ) 20000 м    8/0 верхняя 
[Ci fib]
+5.4 -11.7 28 +4  1032.6  -1.1  757  300           
12 23.03.17 250 (З) 20000 м    8/0 верхняя 
[Ci]
+0.9 -8.7 49 +2  1032.8  -0.2  757  305    +6.8       
15 23.03.17 тихо ()   20000 м    ясно 
-4 -8.4 71 -4  1033.7  0.5  757  310           
18 23.03.17 150 (ЮВ) 20000 м    ясно 
-5.8 -9.9 73 -5  1034  0.1  757  313           
21 23.03.17 тихо ()   20000 м    ясно 
-7.7 -9.9 84 -8  1034.1  -0.1  757  315           
00 24.03.17 150 (ЮВ) 20000 м    3/0 верхняя 
[Ci fib]
-9.5 -11.8 83 -9  1034.8  0.5  757  317  -10      37  равномерный
сухой снег
100% 
03 24.03.17 290 (З) 20000 м    3/0 верхняя 
[Ci fib]
+1.1 -13.1 34 +2  1034.2  0.4  758  305           
06 24.03.17 300 (СЗ) 20000 м    3/0 верхняя 
[Ci fib]
+5.2 -12.1 27 +4  1032.8  -1.1  757  300           
09 24.03.17 290 (З) 20000 м    ясно 
+7.5 -11.8 24 +7  1031.1  -1.4  756  297           
12 24.03.17 тихо ()   20000 м    ясно 
+2.3 -8.6 44 +2  1030.9  -0.6  755  303    +8.2       
15 24.03.17 тихо ()   20000 м    ясно 
-4.7 -8.3 76 -5  1031.3  -0.3  755  310           
18 24.03.17 140 (ЮВ) 20000 м    ясно 
-8 -10.2 84 -8  1030.8  -0.7  755  314           
21 24.03.17 160 (Ю) 20000 м    ясно 
-10.2 -11.8 88 -10  1029.9  -1.1  754  317           
00 25.03.17 150 (ЮВ) 20000 м    ясно 
-12.2 -13.1 93 -12  1029.2  -0.8  753  319  -12.4      36  равномерный
сухой снег
100% 
03 25.03.17 150 (ЮВ) 20000 м    ясно 
-3.1 -11.3 53 -4  1027.1  -1.2  752  308           
06 25.03.17 150 (ЮВ) 20000 м    ясно 
+5.2 -10.2 32 +4  1023.6  -2.7  750  298           
09 25.03.17 160 (Ю) 20000 м    ясно 
+7.5 -10.6 26 +7  1020.2  -3.1  748  294           
12 25.03.17 150 (ЮВ) 20000 м    3/0 верхняя 
[Ci fib]
+4.4 -10.8 32 +5  1017.8  -2.7  746  297    +7.6       
Время (UTC), дата Ветер
(°,м/с) 
Видим.   Явления Облачность Т
(°С)
Тd
(°С)
f(%) Тe
(°С)
Pmin
(гПа)
dP
(гПа)
Po
(мм)
O2
(г/м3)
Тmin Tmax R s Состояние
почвы

Для получения пояснительной информации подведите курсор к названию столбца.

ПОГОДА Дзерджинское - архив

Всё, что Вы хотите узнать о погоде Дзерджинское - удобно и подробно!

Выберите нужную дату (начиная с 1 января 2015* года) и нажмите кнопку "Найти".
Будут отображены архивные сводки погоды по пункту Дзерджинское, начиная с указанной даты.


Отображать данные в формате CSV (для использования в таблицах Excel)


Внимание! Наш архив погоды предназначен исключительно для личного некоммерческого использования в познавательных целях. Если Вам необходимы официальные справки о состоянии погоды (для производственных, юридических, коммерческих и т.п. целей), обращайтесь в органы Росгидромета.

*Примечание: данная дата относится к архиву по метеостанциям СССР (Россия, СНГ, Балтия).
Архив по метеостанциям Зарубежной Европы и Азии (кроме Китая) хранится 10 дней, по другим регионам земного шара (Китай, Африка, Америка, Австралия, Океания) - 1 день.

Дзерджинское - район местоположения метеостанции


Название, широта, долгота, высота метеостанции:
Дзерджинское 56.9°ш. 95.2°д. 188 м над ур. моря [Российская Федерация]

Дополнительная информация

В oтличие oт бoльшинства пoгoдных сайтoв мы публикуем пoдрoбную метеoинфoрмацию в детальнoм прoфессиoнальнoм фoрмате.

Характеристики температуры и влажнoсти вoздуха измеряются на высoте 2 м в тени вдали oт зданий и деревьев.
Скoрoсть ветра измеряется на высoте 10 м (на урoвне рoста челoвека скoрoсть ветра ниже в 1.5-2 раза). Если метеoстанция нахoдится в гoрoде или в лесу, тo скoрoсть ветра занижена на 2-4 м/с пo сравнению с oткрытым местoм. Скoрoсть ветра над акватoриями крупных рек и oзёр, а также на вершинах хoлмoв на 2-5 м/с выше, чем в oбычных услoвиях.
Атмoсфернoе давление в разных тoчках местнoсти мoжет значительнo oтличаться oт давления на метеoстанции, в зависимoсти oт услoвий рельефа (при пoдъёме на 10 м давление пoнижается примернo на 1 мм рт.ст.).